Location: Lombard
(41.8800°N, 88.0080°W)
Time: 23:42:42
(UTC-05:00)

A-11 Canister half - Pass Details

Date: 29 January 2023
Orbit: 1512 x 1687 km, 47.2° (Epoch: 20 March)

Event Time Altitude Azimuth Distance (km) Brightness Sun altitude
Rises 16:18:33 0° 288° (WNW) 4,727 12.2 6.5°
Reaches altitude 10° 16:21:40 10° 291° (WNW) 3,723 11.7 6.0°
Maximum altitude 16:31:02 72° 16° (NNE) 1,583 9.1 4.5°
Drops below altitude 10° 16:40:15 10° 101° (E) 3,669 10.5 3.0°
Sets 16:43:18 0° 103° (ESE) 4,654 11.1 2.5°
